,,Stat6,,Stat2,,Stat8,,Stat9,,Stat10,,Wind1,,Wind1,
time,status,PA1M_AVG,status,PR1M_SUM,status,RH1M_AVG,status,SR1M_AVG,status,TA1M_AVG,status,W1dAve1m,status,W1sAve1m,
2004-09-14, 00:00:00,VALID,920.996,VALID,0,VALID,100,VALID,0.0169808,VALID,19.7042,VALID,40,VALID,0.231488,
2004-09-14, 00:01:00,VALID,921.001,VALID,0,VALID,100,VALID,0.0169808,VALID,19.7333,VALID,40,VALID,0.422965,
2004-09-14, 00:02:00,VALID,920.99,VALID,0,VALID,100,VALID,-0.0169808,VALID,19.7591,VALID,40,VALID,0.46875,
2004-09-14, 00:03:00,VALID,920.98,VALID,0,VALID,100,VALID,0,VALID,19.7849,VALID,40,VALID,0.199132,
2004-09-14, 00:04:00,VALID,920.982,VALID,0,VALID,100,VALID,0,VALID,19.8048,VALID,40,VALID,0.0874256,
2004-09-14, 00:05:00,VALID,920.969,VALID,0,VALID,100,VALID,0,VALID,19.7882,VALID,40,VALID,0,
2004-09-14, 00:06:00,VALID,920.954,VALID,0,VALID,100,VALID,0,VALID,19.7626,VALID,40,VALID,0.0905449,
2004-09-14, 00:07:00,VALID,920.931,VALID,0,VALID,100,VALID,0,VALID,19.74,VALID,40,VALID,0.243902,
2004-09-14, 00:08:00,VALID,920.895,VALID,0,VALID,100,VALID,0,VALID,19.7139,VALID,40,VALID,0,
2004-09-14, 00:09:00,VALID,920.86,VALID,0,VALID,100,VALID,0,VALID,19.7238,VALID,40,VALID,0.000381098,
2004-09-14, 00:10:00,VALID,920.826,VALID,0,VALID,100,VALID,0.0169808,VALID,19.7107,VALID,40,VALID,0.0942951,
2004-09-14, 00:11:00,VALID,920.789,VALID,0,VALID,100,VALID,0,VALID,19.7278,VALID,40,VALID,0.0712209,
2004-09-14, 00:12:00,VALID,920.765,VALID,0,VALID,100,VALID,-0.0169808,VALID,19.7335,VALID,40,VALID,0.360863,
2004-09-14, 00:13:00,VALID,920.751,VALID,0,VALID,100,VALID,0,VALID,19.74,VALID,40,VALID,0.656994,
2004-09-14, 00:14:00,VALID,920.735,VALID,0,VALID,100,VALID,0,VALID,19.7209,VALID,39,VALID,0.852121,
2004-09-14, 00:15:00,VALID,920.7,VALID,0,VALID,100,VALID,-0.0339617,VALID,19.7303,VALID,40,VALID,0.828887,
2004-09-14, 00:16:00,VALID,920.677,VALID,0,VALID,100,VALID,-0.0169808,VALID,19.7206,VALID,46,VALID,0.924782,
2004-09-14, 00:17:00,VALID,920.658,VALID,0,VALID,100,VALID,0.0169808,VALID,19.6913,VALID,51,VALID,0.85332,
2004-09-14, 00:18:00,VALID,920.601,VALID,0,VALID,100,VALID,0,VALID,19.6851,VALID,48,VALID,0.754084,
2004-09-14, 00:19:00,VALID,920.571,VALID,0,VALID,100,VALID,0,VALID,19.6694,VALID,49,VALID,0.629179,
2004-09-14, 00:20:00,VALID,920.517,VALID,0,VALID,100,VALID,0,VALID,19.6593,VALID,49,VALID,0.696875,
2004-09-14, 00:21:00,VALID,920.488,VALID,0,VALID,100,VALID,-0.0339617,VALID,19.6525,VALID,48,VALID,0.474201,
2004-09-14, 00:22:00,VALID,920.449,VALID,0,VALID,100,VALID,-0.0169808,VALID,19.6528,VALID,56,VALID,0.353795,
2004-09-14, 00:23:00,VALID,920.409,VALID,0,VALID,100,VALID,-0.0169808,VALID,19.6371,VALID,62,VALID,0.216082,
2004-09-14, 00:24:00,VALID,920.386,VALID,0,VALID,100,VALID,0,VALID,19.6342,VALID,85,VALID,0.2859,
2004-09-14, 00:25:00,VALID,920.389,VALID,0,VALID,100,VALID,-0.0169808,VALID,19.6108,VALID,90,VALID,0.398438,
2004-09-14, 00:26:00,VALID,920.383,VALID,0,VALID,100,VALID,0,VALID,19.6205,VALID,90,VALID,0.404552,
2004-09-14, 00:27:00,VALID,920.385,VALID,0,VALID,100,VALID,0,VALID,19.6138,VALID,90,VALID,0.383507,
2004-09-14, 00:28:00,VALID,920.382,VALID,0,VALID,100,VALID,-0.0169808,VALID,19.6111,VALID,89,VALID,0.397892,
2004-09-14, 00:29:00,VALID,920.367,VALID,0,VALID,100,VALID,-0.0169808,VALID,19.6138,VALID,89,VALID,0.257254,
2004-09-14, 00:30:00,VALID,920.338,VALID,0,VALID,100,VALID,-0.0169808,VALID,19.6205,VALID,89,VALID,0.230208,
2004-09-14, 00:31:00,VALID,920.327,VALID,0,VALID,100,VALID,-0.0169808,VALID,19.6332,VALID,89,VALID,0.0644055,
2004-09-14, 00:32:00,VALID,920.32,VALID,0,VALID,100,VALID,0,VALID,19.6426,VALID,89,VALID,0.202939,
2004-09-14, 00:33:00,VALID,920.316,VALID,0,VALID,100,VALID,-0.0169808,VALID,19.6429,VALID,90,VALID,0.348656,
2004-09-14, 00:34:00,VALID,920.302,VALID,0,VALID,100,VALID,0,VALID,19.6429,VALID,102,VALID,0.33631,
2004-09-14, 00:35:00,VALID,920.292,VALID,0,VALID,100,VALID,0.0169808,VALID,19.6431,VALID,115,VALID,0.617378,
2004-09-14, 00:36:00,VALID,920.275,VALID,0,VALID,100,VALID,-0.0169808,VALID,19.6332,VALID,64,VALID,0.560724,
2004-09-14, 00:37:00,VALID,920.252,VALID,0,VALID,100,VALID,0,VALID,19.6364,VALID,49,VALID,0.91673,
2004-09-14, 00:38:00,VALID,920.228,VALID,0,VALID,100,VALID,0,VALID,19.6329,VALID,55,VALID,1.05664,
2004-09-14, 00:39:00,VALID,920.222,VALID,0,VALID,100,VALID,0,VALID,19.6434,VALID,60,VALID,0.736421,
2004-09-14, 00:40:00,VALID,920.206,VALID,0,VALID,100,VALID,0,VALID,19.6404,VALID,59,VALID,0.361607,
2004-09-14, 00:41:00,VALID,920.191,VALID,0,VALID,100,VALID,-0.0169808,VALID,19.6106,VALID,59,VALID,0.571057,
2004-09-14, 00:42:00,VALID,920.191,VALID,0,VALID,100,VALID,0,VALID,19.6009,VALID,59,VALID,0.268288,
2004-09-14, 00:43:00,VALID,920.193,VALID,0,VALID,100,VALID,-0.0169808,VALID,19.6076,VALID,59,VALID,0.198691,
2004-09-14, 00:44:00,VALID,920.209,VALID,0,VALID,100,VALID,0,VALID,19.6369,VALID,59,VALID,0.0729167,
2004-09-14, 00:45:00,VALID,920.223,VALID,0,VALID,100,VALID,-0.0169808,VALID,19.6493,VALID,49,VALID,0.411272,
2004-09-14, 00:46:00,VALID,920.227,VALID,0,VALID,100,VALID,-0.0339617,VALID,19.6498,VALID,32,VALID,0.615282,
2004-09-14, 00:47:00,VALID,920.229,VALID,0,VALID,100,VALID,-0.0169808,VALID,19.6498,VALID,46,VALID,0.55451,
2004-09-14, 00:48:00,VALID,920.243,VALID,0,VALID,100,VALID,-0.0339617,VALID,19.6595,VALID,61,VALID,0.586115,
2004-09-14, 00:49:00,VALID,920.229,VALID,0,VALID,100,VALID,0,VALID,19.6466,VALID,69,VALID,0.734375,
2004-09-14, 00:50:00,VALID,920.198,VALID,0,VALID,100,VALID,0,VALID,19.627,VALID,69,VALID,0.288504,
2004-09-14, 00:51:00,VALID,920.144,VALID,0,VALID,100,VALID,0,VALID,19.6237,VALID,69,VALID,0.129573,
2004-09-14, 00:52:00,VALID,920.107,VALID,0,VALID,100,VALID,0,VALID,19.6429,VALID,67,VALID,0.152344,
2004-09-14, 00:53:00,VALID,920.081,VALID,0,VALID,100,VALID,0,VALID,19.6816,VALID,53,VALID,0.463986,
2004-09-14, 00:54:00,VALID,920.063,VALID,0,VALID,100,VALID,0,VALID,19.6814,VALID,56,VALID,0.440848,
2004-09-14, 00:55:00,VALID,920.046,VALID,0,VALID,100,VALID,0,VALID,19.6655,VALID,70,VALID,0.521577,
2004-09-14, 00:56:00,VALID,920.008,VALID,0,VALID,100,VALID,0.0169808,VALID,19.6458,VALID,90,VALID,0.466406,
2004-09-14, 00:57:00,VALID,919.989,VALID,0,VALID,100,VALID,0.0169808,VALID,19.6332,VALID,93,VALID,0.361049,
2004-09-14, 00:58:00,VALID,919.964,VALID,0,VALID,100,VALID,0.0169808,VALID,19.6329,VALID,93,VALID,0.0509673,
2004-09-14, 00:59:00,VALID,919.947,VALID,0,VALID,100,VALID,0,VALID,19.6692,VALID,93,VALID,0.0503472,
2004-09-14, 01:00:00,VALID,919.943,VALID,0,VALID,100,VALID,0,VALID,19.6458,VALID,93,VALID,0.2004,
2004-09-14, 01:01:00,VALID,919.945,VALID,0,VALID,100,VALID,-0.0339617,VALID,19.6466,VALID,93,VALID,0.49314,
2004-09-14, 01:02:00,VALID,919.959,VALID,0,VALID,100,VALID,-0.0169808,VALID,19.6307,VALID,93,VALID,0.403516,
2004-09-14, 01:03:00,VALID,919.956,VALID,0,VALID,100,VALID,-0.0169808,VALID,19.6106,VALID,93,VALID,0.68378,
2004-09-14, 01:04:00,VALID,919.931,VALID,0,VALID,100,VALID,0.0169808,VALID,19.6041,VALID,93,VALID,0.479514,
2004-09-14, 01:05:00,VALID,919.906,VALID,0,VALID,100,VALID,0,VALID,19.6078,VALID,93,VALID,0.112216,
2004-09-14, 01:06:00,VALID,919.87,VALID,0,VALID,100,VALID,0,VALID,19.6143,VALID,93,VALID,0.355859,
2004-09-14, 01:07:00,VALID,919.841,VALID,0,VALID,100,VALID,0,VALID,19.6173,VALID,53,VALID,0.630273,
2004-09-14, 01:08:00,VALID,919.812,VALID,0,VALID,100,VALID,0,VALID,19.6367,VALID,37,VALID,0.857955,
2004-09-14, 01:09:00,VALID,919.787,VALID,0,VALID,100,VALID,-0.0169808,VALID,19.6426,VALID,33,VALID,0.817769,
2004-09-14, 01:10:00,VALID,919.781,VALID,0,VALID,100,VALID,-0.0339617,VALID,19.6657,VALID,24,VALID,0.641533,
2004-09-14, 01:11:00,VALID,919.778,VALID,0,VALID,100,VALID,-0.0849042,VALID,19.7015,VALID,19,VALID,0.605655,
2004-09-14, 01:12:00,VALID,919.769,VALID,0,VALID,100,VALID,-0.0679233,VALID,19.7141,VALID,23,VALID,0.988459,
2004-09-14, 01:13:00,VALID,919.764,VALID,0,VALID,100,VALID,-0.0679233,VALID,19.6886,VALID,19,VALID,1.20294,
2004-09-14, 01:14:00,VALID,919.767,VALID,0,VALID,100,VALID,-0.0339617,VALID,19.6918,VALID,24,VALID,0.645419,
2004-09-14, 01:15:00,VALID,919.767,VALID,0,VALID,100,VALID,-0.0339617,VALID,19.7114,VALID,22,VALID,0.234169,
2004-09-14, 01:16:00,VALID,919.75,VALID,0,VALID,100,VALID,-0.0339617,VALID,19.7248,VALID,22,VALID,0.383185,
2004-09-14, 01:17:00,VALID,919.744,VALID,0,VALID,100,VALID,-0.0509425,VALID,19.7174,VALID,14,VALID,0.380907,
2004-09-14, 01:18:00,VALID,919.727,VALID,0,VALID,100,VALID,-0.0339617,VALID,19.7213,VALID,17,VALID,1.07122,
2004-09-14, 01:19:00,VALID,919.723,VALID,0,VALID,100,VALID,-0.0169808,VALID,19.6843,VALID,19,VALID,0.690044,
2004-09-14, 01:20:00,VALID,919.709,VALID,0,VALID,100,VALID,-0.0509425,VALID,19.701,VALID,25,VALID,0.943788,
2004-09-14, 01:21:00,VALID,919.691,VALID,0,VALID,100,VALID,-0.0509425,VALID,19.698,VALID,23,VALID,0.816592,
2004-09-14, 01:22:00,VALID,919.666,VALID,0,VALID,100,VALID,-0.0509425,VALID,19.7107,VALID,16,VALID,0.394709,
2004-09-14, 01:23:00,VALID,919.645,VALID,0,VALID,100,VALID,-0.0509425,VALID,19.7268,VALID,16,VALID,0.516533,
2004-09-14, 01:24:00,VALID,919.627,VALID,0,VALID,100,VALID,-0.0509425,VALID,19.743,VALID,16,VALID,0.263626,
2004-09-14, 01:25:00,VALID,919.617,VALID,0,VALID,100,VALID,-0.0849042,VALID,19.7596,VALID,16,VALID,0.411577,
2004-09-14, 01:26:00,VALID,919.613,VALID,0,VALID,100,VALID,-0.0509425,VALID,19.7728,VALID,16,VALID,0.0637718,
2004-09-14, 01:27:00,VALID,919.586,VALID,0,VALID,100,VALID,-0.0849042,VALID,19.7459,VALID,52,VALID,0.420641,
2004-09-14, 01:28:00,VALID,919.574,VALID,0,VALID,100,VALID,-0.0509425,VALID,19.733,VALID,56,VALID,0.0689787,
2004-09-14, 01:29:00,VALID,919.562,VALID,0,VALID,100,VALID,-0.0339617,VALID,19.7435,VALID,65,VALID,0.318714,
2004-09-14, 01:30:00,VALID,919.557,VALID,0,VALID,100,VALID,-0.0339617,VALID,19.7298,VALID,66,VALID,0.0967262,
2004-09-14, 01:31:00,VALID,919.545,VALID,0,VALID,100,VALID,-0.0849042,VALID,19.7405,VALID,68,VALID,0.231957,
2004-09-14, 01:32:00,VALID,919.531,VALID,0,VALID,100,VALID,-0.0679233,VALID,19.737,VALID,104,VALID,0.440168,
2004-09-14, 01:33:00,VALID,919.534,VALID,0,VALID,100,VALID,-0.0849042,VALID,19.7437,VALID,141,VALID,0.413699,
2004-09-14, 01:34:00,VALID,919.525,VALID,0,VALID,100,VALID,-0.101885,VALID,19.7397,VALID,165,VALID,0.505632,
2004-09-14, 01:35:00,VALID,919.532,VALID,0,VALID,100,VALID,-0.0509425,VALID,19.7432,VALID,190,VALID,0.495908,
2004-09-14, 01:36:00,VALID,919.538,VALID,0,VALID,100,VALID,-0.0849042,VALID,19.7365,VALID,185,VALID,0.481898,
2004-09-14, 01:37:00,VALID,919.532,VALID,0,VALID,100,VALID,-0.0339617,VALID,19.7169,VALID,173,VALID,0.501402,
2004-09-14, 01:38:00,VALID,919.53,VALID,0,VALID,100,VALID,-0.101885,VALID,19.6982,VALID,172,VALID,0.89939,
2004-09-14, 01:39:00,VALID,919.532,VALID,0,VALID,100,VALID,-0.0679233,VALID,19.6558,VALID,170,VALID,0.951823,
2004-09-14, 01:40:00,VALID,919.546,VALID,0,VALID,100,VALID,-0.0849042,VALID,19.627,VALID,170,VALID,0.799423,
2004-09-14, 01:41:00,VALID,919.533,VALID,0,VALID,100,VALID,-0.0339617,VALID,19.6071,VALID,153,VALID,0.518787,
2004-09-14, 01:42:00,VALID,919.532,VALID,0,VALID,100,VALID,-0.0679233,VALID,19.5914,VALID,145,VALID,0.143532,
2004-09-14, 01:43:00,VALID,919.515,VALID,0,VALID,100,VALID,-0.0849042,VALID,19.5914,VALID,153,VALID,0.253018,
2004-09-14, 01:44:00,VALID,919.508,VALID,0,VALID,100,VALID,-0.0679233,VALID,19.5947,VALID,173,VALID,0.351199,
2004-09-14, 01:45:00,VALID,919.491,VALID,0,VALID,100,VALID,-0.0339617,VALID,19.5974,VALID,217,VALID,0.428052,
2004-09-14, 01:46:00,VALID,919.475,VALID,0,VALID,100,VALID,-0.0509425,VALID,19.5947,VALID,222,VALID,0.0962271,
2004-09-14, 01:47:00,VALID,919.464,VALID,0,VALID,100,VALID,-0.0339617,VALID,19.6006,VALID,212,VALID,0.25728,
2004-09-14, 01:48:00,VALID,919.458,VALID,0,VALID,100,VALID,-0.0509425,VALID,19.6237,VALID,211,VALID,0.147017,
2004-09-14, 01:49:00,VALID,919.456,VALID,0,VALID,100,VALID,-0.0339617,VALID,19.6364,VALID,211,VALID,0,
2004-09-14, 01:50:00,VALID,919.436,VALID,0,VALID,100,VALID,-0.0849042,VALID,19.6528,VALID,211,VALID,0.16311,
2004-09-14, 01:51:00,VALID,919.413,VALID,0,VALID,100,VALID,-0.0509425,VALID,19.6496,VALID,211,VALID,0.409624,
2004-09-14, 01:52:00,VALID,919.401,VALID,0,VALID,100,VALID,-0.0849042,VALID,19.6461,VALID,240,VALID,0.670422,
2004-09-14, 01:53:00,VALID,919.383,VALID,0,VALID,100,VALID,-0.0339617,VALID,19.6461,VALID,239,VALID,0.831836,
2004-09-14, 01:54:00,VALID,919.388,VALID,0,VALID,100,VALID,-0.0679233,VALID,19.6595,VALID,237,VALID,0.714648,
2004-09-14, 01:55:00,VALID,919.395,VALID,0,VALID,100,VALID,-0.0169808,VALID,19.6588,VALID,194,VALID,0.776389,
2004-09-14, 01:56:00,VALID,919.399,VALID,0,VALID,100,VALID,0.0339617,VALID,19.6511,VALID,195,VALID,0.93423,
2004-09-14, 01:57:00,VALID,919.415,VALID,0,VALID,100,VALID,0.0509425,VALID,19.6414,VALID,205,VALID,1.04506,
2004-09-14, 01:58:00,VALID,919.428,VALID,0,VALID,100,VALID,0.0509425,VALID,19.6449,VALID,209,VALID,0.985491,
2004-09-14, 01:59:00,VALID,919.456,VALID,0,VALID,100,VALID,0.0509425,VALID,19.6384,VALID,223,VALID,0.536086,
2004-09-14, 02:00:00,VALID,919.455,VALID,0,VALID,100,VALID,0.0509425,VALID,19.6352,VALID,225,VALID,0.0792411,
2004-09-14, 02:01:00,VALID,919.473,VALID,0,VALID,100,VALID,0.0169808,VALID,19.6481,VALID,225,VALID,0,
2004-09-14, 02:02:00,VALID,919.477,VALID,0,VALID,100,VALID,0.101885,VALID,19.6806,VALID,225,VALID,0,
2004-09-14, 02:03:00,VALID,919.491,VALID,0,VALID,100,VALID,0.0849042,VALID,19.7094,VALID,225,VALID,0,
2004-09-14, 02:04:00,VALID,919.492,VALID,0,VALID,100,VALID,0.0849042,VALID,19.7286,VALID,225,VALID,0,
2004-09-14, 02:05:00,VALID,919.512,VALID,0,VALID,100,VALID,0.0679233,VALID,19.7678,VALID,225,VALID,0,
2004-09-14, 02:06:00,VALID,919.512,VALID,0,VALID,100,VALID,0.0849042,VALID,19.7643,VALID,225,VALID,0,
2004-09-14, 02:07:00,VALID,919.504,VALID,0,VALID,100,VALID,0.0339617,VALID,19.7708,VALID,225,VALID,0,
2004-09-14, 02:08:00,VALID,919.492,VALID,0,VALID,100,VALID,0.0339617,VALID,19.777,VALID,225,VALID,0,
2004-09-14, 02:09:00,VALID,919.469,VALID,0,VALID,100,VALID,0.0509425,VALID,19.7641,VALID,225,VALID,0,
2004-09-14, 02:10:00,VALID,919.422,VALID,0,VALID,100,VALID,0.0509425,VALID,19.7325,VALID,235,VALID,0.256479,
2004-09-14, 02:11:00,VALID,919.39,VALID,0,VALID,100,VALID,-0.0679233,VALID,19.6761,VALID,250,VALID,1.00327,
2004-09-14, 02:12:00,VALID,919.366,VALID,0,VALID,100,VALID,-0.101885,VALID,19.6473,VALID,242,VALID,0.851926,
2004-09-14, 02:13:00,VALID,919.342,VALID,0,VALID,100,VALID,-0.101885,VALID,19.6443,VALID,241,VALID,0.255451,
2004-09-14, 02:14:00,VALID,919.316,VALID,0,VALID,100,VALID,-0.101885,VALID,19.6406,VALID,241,VALID,0,
2004-09-14, 02:15:00,VALID,919.321,VALID,0,VALID,100,VALID,-0.0849042,VALID,19.657,VALID,241,VALID,0.00093006,
2004-09-14, 02:16:00,VALID,919.325,VALID,0,VALID,100,VALID,-0.0849042,VALID,19.6799,VALID,241,VALID,0.178925,
2004-09-14, 02:17:00,VALID,919.34,VALID,0,VALID,100,VALID,-0.101885,VALID,19.6861,VALID,29,VALID,0.704687,
2004-09-14, 02:18:00,VALID,919.341,VALID,0,VALID,100,VALID,-0.0679233,VALID,19.6928,VALID,43,VALID,0.557776,
2004-09-14, 02:19:00,VALID,919.34,VALID,0,VALID,100,VALID,-0.0849042,VALID,19.6896,VALID,43,VALID,0.455915,
2004-09-14, 02:20:00,VALID,919.321,VALID,0,VALID,100,VALID,-0.0849042,VALID,19.6732,VALID,40,VALID,0.634341,
2004-09-14, 02:21:00,VALID,919.308,VALID,0,VALID,100,VALID,-0.0849042,VALID,19.6789,VALID,40,VALID,0.486719,
2004-09-14, 02:22:00,VALID,919.297,VALID,0,VALID,100,VALID,-0.0679233,VALID,19.6888,VALID,40,VALID,0.607515,
2004-09-14, 02:23:00,VALID,919.285,VALID,0,VALID,100,VALID,-0.0509425,VALID,19.7089,VALID,40,VALID,0.235102,
2004-09-14, 02:24:00,VALID,919.289,VALID,0,VALID,100,VALID,-0.0849042,VALID,19.702,VALID,40,VALID,0,
2004-09-14, 02:25:00,VALID,919.272,VALID,0,VALID,100,VALID,-0.0509425,VALID,19.7278,VALID,40,VALID,0.0818452,
2004-09-14, 02:26:00,VALID,919.285,VALID,0,VALID,100,VALID,0.0339617,VALID,19.7397,VALID,40,VALID,0.336115,
2004-09-14, 02:27:00,VALID,919.272,VALID,0,VALID,100,VALID,0,VALID,19.7651,VALID,40,VALID,0.147485,
2004-09-14, 02:28:00,VALID,919.26,VALID,0,VALID,100,VALID,0.0169808,VALID,19.7842,VALID,40,VALID,0.00190549,
2004-09-14, 02:29:00,VALID,919.246,VALID,0,VALID,100,VALID,0.0169808,VALID,19.7879,VALID,40,VALID,0.0196221,
2004-09-14, 02:30:00,VALID,919.233,VALID,0,VALID,100,VALID,0.0339617,VALID,19.8103,VALID,40,VALID,0,
2004-09-14, 02:31:00,VALID,919.235,VALID,0,VALID,100,VALID,0.0169808,VALID,19.8075,VALID,40,VALID,0,
2004-09-14, 02:32:00,VALID,919.217,VALID,0,VALID,100,VALID,0,VALID,19.7683,VALID,40,VALID,0,
2004-09-14, 02:33:00,VALID,919.216,VALID,0,VALID,100,VALID,0,VALID,19.7882,VALID,37,VALID,0.0969551,
2004-09-14, 02:34:00,VALID,919.216,VALID,0,VALID,100,VALID,0.0169808,VALID,19.7787,VALID,338,VALID,0.388529,
2004-09-14, 02:35:00,VALID,919.203,VALID,0,VALID,100,VALID,0,VALID,19.7656,VALID,332,VALID,0.237723,
2004-09-14, 02:36:00,VALID,919.194,VALID,0,VALID,100,VALID,0,VALID,19.7656,VALID,332,VALID,0.0490057,
2004-09-14, 02:37:00,VALID,919.173,VALID,0,VALID,100,VALID,0,VALID,19.7427,VALID,332,VALID,0,
2004-09-14, 02:38:00,VALID,919.156,VALID,0,VALID,100,VALID,0.0169808,VALID,19.7266,VALID,332,VALID,0,
2004-09-14, 02:39:00,VALID,919.145,VALID,0,VALID,100,VALID,0,VALID,19.7298,VALID,332,VALID,0,
2004-09-14, 02:40:00,VALID,919.142,VALID,0,VALID,100,VALID,0,VALID,19.7367,VALID,332,VALID,0,
2004-09-14, 02:41:00,VALID,919.123,VALID,0,VALID,100,VALID,0,VALID,19.7462,VALID,332,VALID,0,
2004-09-14, 02:42:00,VALID,919.138,VALID,0,VALID,100,VALID,0.0169808,VALID,19.7586,VALID,332,VALID,0.209985,
2004-09-14, 02:43:00,VALID,919.137,VALID,0,VALID,100,VALID,0,VALID,19.7849,VALID,343,VALID,0.485465,
2004-09-14, 02:44:00,VALID,919.143,VALID,0,VALID,100,VALID,0,VALID,19.7748,VALID,346,VALID,0.366655,
2004-09-14, 02:45:00,VALID,919.153,VALID,0,VALID,100,VALID,0,VALID,19.779,VALID,8,VALID,0.491211,
2004-09-14, 02:46:00,VALID,919.184,VALID,0,VALID,100,VALID,0,VALID,19.7849,VALID,25,VALID,0.459077,
2004-09-14, 02:47:00,VALID,919.176,VALID,0,VALID,100,VALID,0,VALID,19.7976,VALID,25,VALID,0.124273,
2004-09-14, 02:48:00,VALID,919.193,VALID,0,VALID,100,VALID,-0.0169808,VALID,19.7785,VALID,25,VALID,0.443859,
2004-09-14, 02:49:00,VALID,919.197,VALID,0,VALID,100,VALID,0,VALID,19.775,VALID,25,VALID,0.731468,
2004-09-14, 02:50:00,VALID,919.193,VALID,0,VALID,100,VALID,0,VALID,19.769,VALID,25,VALID,0.900724,
2004-09-14, 02:51:00,VALID,919.193,VALID,0,VALID,100,VALID,0,VALID,19.7435,VALID,27,VALID,0.868096,
2004-09-14, 02:52:00,VALID,919.179,VALID,0,VALID,100,VALID,0,VALID,19.7136,VALID,34,VALID,1.10785,
2004-09-14, 02:53:00,VALID,919.178,VALID,0,VALID,100,VALID,0,VALID,19.6684,VALID,34,VALID,1.21711,
2004-09-14, 02:54:00,VALID,919.167,VALID,0,VALID,100,VALID,0,VALID,19.6525,VALID,41,VALID,1.51036,
2004-09-14, 02:55:00,VALID,919.177,VALID,0,VALID,100,VALID,0,VALID,19.6133,VALID,45,VALID,1.34542,
2004-09-14, 02:56:00,VALID,919.166,VALID,0,VALID,100,VALID,0.0169808,VALID,19.6006,VALID,45,VALID,1.47093,
2004-09-14, 02:57:00,VALID,919.162,VALID,0,VALID,100,VALID,0,VALID,19.5944,VALID,31,VALID,1.32832,
2004-09-14, 02:58:00,VALID,919.17,VALID,0,VALID,100,VALID,0.0169808,VALID,19.5842,VALID,36,VALID,1.45012,
2004-09-14, 02:59:00,VALID,919.162,VALID,0,VALID,100,VALID,0.0509425,VALID,19.578,VALID,38,VALID,1.36275,
2004-09-14, 03:00:00,VALID,919.147,VALID,0,VALID,100,VALID,0,VALID,19.5559,VALID,39,VALID,1.42168,
2004-09-14, 03:01:00,VALID,919.141,VALID,0,VALID,100,VALID,0,VALID,19.5296,VALID,30,VALID,0.983398,
2004-09-14, 03:02:00,VALID,919.148,VALID,0,VALID,100,VALID,0.0509425,VALID,19.5296,VALID,32,VALID,0.773628,
2004-09-14, 03:03:00,VALID,919.132,VALID,0,VALID,100,VALID,0.0169808,VALID,19.5097,VALID,35,VALID,0.843023,
2004-09-14, 03:04:00,VALID,919.133,VALID,0,VALID,100,VALID,0,VALID,19.5234,VALID,39,VALID,0.659268,
2004-09-14, 03:05:00,VALID,919.119,VALID,0,VALID,100,VALID,0.0169808,VALID,19.5393,VALID,19,VALID,0.427455,
2004-09-14, 03:06:00,VALID,919.103,VALID,0,VALID,100,VALID,0.0169808,VALID,19.5626,VALID,19,VALID,0.325218,
2004-09-14, 03:07:00,VALID,919.08,VALID,0,VALID,100,VALID,0,VALID,19.5423,VALID,30,VALID,0.894159,
2004-09-14, 03:08:00,VALID,919.079,VALID,0,VALID,100,VALID,0,VALID,19.546,VALID,39,VALID,0.408078,
2004-09-14, 03:09:00,VALID,919.06,VALID,0,VALID,100,VALID,0.0169808,VALID,19.5624,VALID,39,VALID,0.015253,
2004-09-14, 03:10:00,VALID,919.047,VALID,0,VALID,100,VALID,-0.0339617,VALID,19.5659,VALID,39,VALID,0.141369,
2004-09-14, 03:11:00,VALID,919.054,VALID,0,VALID,100,VALID,-0.0849042,VALID,19.5693,VALID,39,VALID,0,
2004-09-14, 03:12:00,VALID,919.062,VALID,0,VALID,100,VALID,-0.0679233,VALID,19.5698,VALID,39,VALID,0,
2004-09-14, 03:13:00,VALID,919.074,VALID,0,VALID,100,VALID,-0.0849042,VALID,19.5626,VALID,39,VALID,0,
2004-09-14, 03:14:00,VALID,919.08,VALID,0,VALID,100,VALID,-0.101885,VALID,19.6024,VALID,39,VALID,0,
2004-09-14, 03:15:00,VALID,919.081,VALID,0,VALID,100,VALID,-0.101885,VALID,19.6021,VALID,39,VALID,0,
2004-09-14, 03:16:00,VALID,919.101,VALID,0,VALID,100,VALID,-0.0679233,VALID,19.5825,VALID,41,VALID,0.0944767,
2004-09-14, 03:17:00,VALID,919.095,VALID,0,VALID,100,VALID,-0.0679233,VALID,19.5594,VALID,44,VALID,0.3663,
2004-09-14, 03:18:00,VALID,919.114,VALID,0,VALID,100,VALID,-0.0849042,VALID,19.5569,VALID,47,VALID,0.388338,
2004-09-14, 03:19:00,VALID,919.111,VALID,0,VALID,100,VALID,-0.0849042,VALID,19.5601,VALID,59,VALID,0.207849,
2004-09-14, 03:20:00,VALID,919.106,VALID,0,VALID,100,VALID,-0.0679233,VALID,19.5567,VALID,120,VALID,0.265447,
2004-09-14, 03:21:00,VALID,919.101,VALID,0,VALID,100,VALID,-0.0679233,VALID,19.5567,VALID,127,VALID,0.148247,
2004-09-14, 03:22:00,VALID,919.095,VALID,0,VALID,100,VALID,-0.0849042,VALID,19.5597,VALID,127,VALID,0,
2004-09-14, 03:23:00,VALID,919.071,VALID,0,VALID,100,VALID,-0.0849042,VALID,19.5601,VALID,127,VALID,0,
2004-09-14, 03:24:00,VALID,919.06,VALID,0,VALID,100,VALID,-0.101885,VALID,19.5467,VALID,127,VALID,0,
2004-09-14, 03:25:00,VALID,919.046,VALID,0,VALID,100,VALID,-0.0679233,VALID,19.5465,VALID,127,VALID,0,
2004-09-14, 03:26:00,VALID,919.037,VALID,0,VALID,100,VALID,0.0339617,VALID,19.5587,VALID,127,VALID,0,
2004-09-14, 03:27:00,VALID,919.031,VALID,0,VALID,100,VALID,0.0169808,VALID,19.5549,VALID,127,VALID,0,
2004-09-14, 03:28:00,VALID,919.008,VALID,0,VALID,100,VALID,0.0169808,VALID,19.5522,VALID,127,VALID,0,
2004-09-14, 03:29:00,VALID,919.007,VALID,0,VALID,100,VALID,0.0169808,VALID,19.5351,VALID,127,VALID,0.10747,
2004-09-14, 03:30:00,VALID,918.986,VALID,0,VALID,100,VALID,0,VALID,19.542,VALID,127,VALID,0.151989,
2004-09-14, 03:31:00,VALID,918.944,VALID,0,VALID,100,VALID,0.0169808,VALID,19.5455,VALID,127,VALID,0,
2004-09-14, 03:32:00,VALID,918.903,VALID,0,VALID,100,VALID,0.0169808,VALID,19.552,VALID,127,VALID,0,
2004-09-14, 03:33:00,VALID,918.892,VALID,0,VALID,100,VALID,0,VALID,19.5614,VALID,127,VALID,0.043968,
2004-09-14, 03:34:00,VALID,918.893,VALID,0,VALID,100,VALID,0.0509425,VALID,19.5805,VALID,127,VALID,0.105015,
2004-09-14, 03:35:00,VALID,918.865,VALID,0,VALID,100,VALID,0,VALID,19.5902,VALID,127,VALID,0,
2004-09-14, 03:36:00,VALID,918.861,VALID,0,VALID,100,VALID,0.0169808,VALID,19.5972,VALID,127,VALID,0,
2004-09-14, 03:37:00,VALID,918.837,VALID,0,VALID,100,VALID,0.0169808,VALID,19.5838,VALID,127,VALID,0.01875,
2004-09-14, 03:38:00,VALID,918.82,VALID,0,VALID,100,VALID,0,VALID,19.5939,VALID,127,VALID,0.0697917,
2004-09-14, 03:39:00,VALID,918.82,VALID,0,VALID,100,VALID,0,VALID,19.6039,VALID,127,VALID,0,
2004-09-14, 03:40:00,VALID,918.834,VALID,0,VALID,100,VALID,-0.0339617,VALID,19.6078,VALID,127,VALID,0.160689,
2004-09-14, 03:41:00,VALID,918.839,VALID,0,VALID,100,VALID,-0.0509425,VALID,19.5952,VALID,127,VALID,0.248857,
2004-09-14, 03:42:00,VALID,918.848,VALID,0,VALID,100,VALID,-0.0679233,VALID,19.583,VALID,127,VALID,0.339844,
2004-09-14, 03:43:00,VALID,918.862,VALID,0,VALID,100,VALID,-0.0679233,VALID,19.5698,VALID,127,VALID,0.4871,
2004-09-14, 03:44:00,VALID,918.89,VALID,0,VALID,100,VALID,-0.0509425,VALID,19.5564,VALID,126,VALID,0.561942,